Simultaneous Nadir Overpasses (SNOs) Predictions

Prediction of SNOs between GOES-15 and TERRA Satellite Orbit:

Table of predicted SNOs for the next 14.0 days since TLE Epoch: 3/7/2015
Index Date Time (GOES-15) GOES-15 Lat,Lon TERRA Lat,Lon Distance(km) Time Diff (sec)
1 03/07/2015 07:28:11 -0.05,-135.32 0.03,-134.84 53.92 80
2 03/09/2015 07:16:09 -0.05,-135.29 0.69,-131.92 382.87 80
3 03/09/2015 19:37:27 0.05,-135.31 0.45,-137.08 202.82 80
4 03/11/2015 19:28:11 0.04,-135.27 -0.21,-134.19 122.54 80
5 03/12/2015 07:49:38 -0.04,-135.23 -0.94,-139.39 473.60 80
6 03/13/2015 19:16:18 0.04,-135.22 -0.76,-131.30 444.82 80
7 03/14/2015 07:37:47 -0.04,-135.18 -0.33,-136.52 152.19 80
8 03/16/2015 07:23:21 -0.03,-135.12 0.29,-133.66 166.39 80
9 03/16/2015 19:44:44
